Location: Cardiff
(53.7833°N, 113.6000°W)
Time: 07:13:53
(UTC+00:00)

Oscar 19 - Visible Passes

Search period start: 03 December 2023 00:00
Search period end: 13 December 2023 00:00
Orbit: 771 x 789 km, 98.9° (Epoch: 02 December)

Date Brightness Start Highest point End Pass type
(mag) Time Alt. Az. Time Alt. Az. Time Alt. Az.
03 Dec 13.7 01:05:08 10° WSW 01:07:02 12° W 01:08:58 10° WNW visible
03 Dec 12.6 11:26:35 10° NE 11:30:51 25° E 11:35:06 10° SSE visible
03 Dec 10.6 13:05:25 10° N 13:10:30 61° WNW 13:15:35 10° SSW visible
03 Dec 12.2 14:46:05 10° NNW 14:48:50 15° NW 14:51:35 10° W visible
04 Dec 13.3 00:30:21 10° SW 00:34:13 21° W 00:38:07 10° NW visible
04 Dec 13.4 10:55:15 10° NE 10:58:05 15° E 11:00:55 10° ESE visible
04 Dec 10.7 12:33:00 10° NNE 12:38:12 79° ESE 12:43:22 10° SSW visible
04 Dec 11.7 14:13:01 10° N 14:16:57 23° NW 14:20:53 10° WSW visible
04 Dec 12.4 23:56:51 10° SSW 00:01:33 37° W 00:06:18 10° NNW visible
05 Dec 11.6 12:00:47 10° NNE 12:05:45 45° E 12:10:42 10° S visible
05 Dec 11.2 13:40:16 10° N 13:44:56 36° WNW 13:49:36 10° SW visible
06 Dec 13.8 01:07:38 10° WSW 01:09:20 12° W 01:11:04 10° WNW visible
06 Dec 12.6 11:28:49 10° NE 11:33:09 26° E 11:37:28 10° SSE visible
06 Dec 10.6 13:07:42 10° N 13:12:46 59° WNW 13:17:50 10° SW visible
06 Dec 12.2 14:48:25 10° NNW 14:51:05 14° NW 14:53:46 10° WNW visible
07 Dec 13.4 00:32:43 10° SW 00:36:30 21° W 00:40:21 10° NW visible
07 Dec 13.3 10:57:26 10° NE 11:00:24 15° E 11:03:20 10° ESE visible
07 Dec 10.6 12:35:17 10° NNE 12:40:28 82° ESE 12:45:40 10° SSW visible
07 Dec 11.7 14:15:19 10° N 14:19:12 22° NW 14:23:06 10° WSW visible
07 Dec 12.4 23:59:10 10° SSW 00:03:50 36° W 00:08:34 10° NNW visible
08 Dec 11.5 12:03:02 10° NNE 12:08:02 47° E 12:13:01 10° S visible
08 Dec 11.2 13:42:33 10° N 13:47:11 35° WNW 13:51:50 10° SW visible
09 Dec 13.8 01:10:11 10° W 01:11:39 11° W 01:13:07 10° WNW visible
09 Dec 12.5 11:31:03 10° NE 11:35:26 27° E 11:39:49 10° SSE visible
09 Dec 10.6 13:09:58 10° N 13:15:02 58° WNW 13:20:06 10° SW visible
09 Dec 12.2 14:50:44 10° NNW 14:53:19 14° NW 14:55:55 10° WNW visible
10 Dec 13.4 00:35:04 10° SW 00:38:48 20° W 00:42:34 10° NW visible
10 Dec 13.3 10:59:36 10° NE 11:02:41 16° E 11:05:46 10° ESE visible
10 Dec 10.6 12:37:32 10° NNE 12:42:45 84° ESE 12:47:56 10° SSW visible
10 Dec 11.8 14:17:37 10° N 14:21:27 22° NW 14:25:18 10° WSW visible
11 Dec 12.5 00:01:29 10° SSW 00:06:07 35° W 00:10:49 10° NNW visible
11 Dec 11.5 12:05:17 10° NNE 12:10:19 48° E 12:15:19 10° S visible
11 Dec 11.2 13:44:49 10° N 13:49:27 34° WNW 13:54:04 10° WSW visible
12 Dec 13.9 01:12:46 10° W 01:13:56 11° W 01:15:08 10° WNW visible
12 Dec 12.5 11:33:17 10° NE 11:37:44 28° E 11:42:08 10° SSE visible
12 Dec 10.6 13:12:14 10° N 13:17:18 56° WNW 13:22:21 10° SW visible
12 Dec 12.2 14:53:03 10° NNW 14:55:33 14° NW 14:58:04 10° WNW visible
